Showing default

TIANPING-3A02, 63432

Orbit data source: Space-Track

TIANPING-3A02, 63432 is a payload satellite owned by ZJUNI-SAT (CN) in LEO that was launched on Thu, 03 Apr 2025 UTC via a CHANG ZHENG 6 launch vehicle from the Taiyaun Space Center, China (TSC). Payload-class satellites include a variety of spacecraft equipped with specific instruments for various scientific and technological missions. These include communications satellites like Starlink; space stations such as the ISS; scientific satellites like the Hubble; Earth observation satellites from companies like Planet Labs, Umbra, and HawkEye 360; GPS; miniature CubeSats for education and research; and military/defense satellites.

Loading next visibility...
Identifier
63432, 2025-068A
Orbit
LEO
Country
Flag of CNCN / PRC
Related business
Manufacturer
ZJUNI-SAT
Mission
Operational Defense Calibration
Bus & Motor
TP-3, Unknown motor
Mass
200 kg wet, ~200 kg dry
Launch date (UTC)
2025-04-03 (1 year ago)
Launch vehicle
CHANG ZHENG 6
Launch site
Taiyaun Space Center, China (TSC)
Object type
Payload
Rocket body
Debris
Shape & HBR
Box, 14.5 m
Radar Cross Section
0.135 m², Large (>1 m²)

Expand to show TLE details & history
Last TLE update: 8 hours ago

TLE from 8 hours ago
0 TIANPING-3A02
1 63432U 25068A   26171.50512312  .00000348  00000-0  41459-4 0  9997
2 63432  43.0039  29.4212 0239437 260.4860  96.8843 14.84342299 65873
Epoch: 2026-06-20T12:07Z
TLE epoch observation values (Epoch: 2026-06-20T12:07:22.637Z)
Latitude
-0.00005°
Longitude
-61.14196°
Altitude
639.433 km
Speed
7.527 km/s
True Right ascension
01h 57m 41s
True Declination
0° 00' 00"
Sunlit
Object was in daylight at epoch
Visualization orbit readout
Latitude
Unknown
Longitude
Unknown
Altitude
Unknown
Speed
Unknown
Apparent Right ascension
Unknown
Apparent Declination
Unknown
Sunlit
N/A
Visualization observer readout
Local Sidereal Time
07:17:49
Azimuth
Unknown
Elevation
Unknown
Doppler factor
Unknown
Orbital elements
Apogee altitude
785.063 km
Perigee altitude
450.058 km
Semi-major axis
6,995.697 km
Eccentricity
0.02394
Inclination
43.0039°
RAAN
29.4212°
Arg. of periapsis
260.486°
True anomaly
99.59751°
Mean anomaly
96.8843°
Eccentric anomaly
98.242°
Mean motion
3.70934 °/min
Orbital period
97.05 mins
BSTAR
0.000041459
Loading maneuver chart data...
Computing Atmospheric mass density...
Loading historical data...
Loading historical data...
Loading historical data...
Loading historical data...
Loading historical data...
Loading historical data...
Loading historical data...
Other satellites on launch #68 in the year 2025 (2025-04-03 UTC)

Documentation

Showing up to 5 results
|